Weather observations for the past three days for
Apalachicola, Apalachicola
Imperial (Metric)
Date Time (edt) Wind (mph) Vis. (mi.) Weather Sky Cond. Temperature (ºF) Relative Humidity Wind Chill (°F) Heat Index (°F) Pressure Precipitation (in)
Air Dwpt 6 hour altimeter (in) sea level (mb) 1 hr 3 hr 6 hr
Max. Min.
22 12:53 SE 10 10.00 Fair CLR 91 73.9 57% 101 30.07 1018.1
22 11:53 Vrbl 7 10.00 Fair CLR 93 71.1 49% 100 30.08 1018.5
22 10:53 NE 5 10.00 Fair CLR 91 72 54% 99 30.08 1018.5
22 09:53 N 5 10.00 Overcast OVC085 82.9 71.1 67% 88 30.08 1018.5
22 08:53 N 8 10.00 Overcast OVC080 80.1 70 71% 83 30.08 1018.5
22 07:53 NE 7 10.00 Mostly Cloudy FEW055 BKN080 78.1 71.1 78.1 75 79% 80 30.06 1017.8
22 06:53 N 6 10.00 Overcast OVC070 75.9 72 88% 76 30.05 1017.5
22 05:53 NW 3 10.00 Fair CLR 75.9 72 88% 76 30.04 1017.2
22 04:53 N 5 10.00 Fair CLR 75.9 72 88% 76 30.04 1017.1
22 03:53 N 3 10.00 Fair CLR 77 73 88% 78 30.04 1017.2
22 02:53 N 3 10.00 Fair CLR 75.9 72 88% 76 30.05 1017.5
22 01:53 N 3 10.00 Fair CLR 75.9 72 86 75 88% 76 30.07 1018.1
22 00:53 Calm 10.00 Fair CLR 75.9 71.1 85% 76 30.07 1018.3
21 23:53 N 5 10.00 Partly Cloudy SCT075 77 71.1 82% 79 30.08 1018.6
21 22:53 Calm 10.00 Fair CLR 79 70 74% 82 30.08 1018.5
21 21:53 NW 3 10.00 Fair CLR 79 68 69% 81 30.05 1017.6
21 20:53 W 6 10.00 Fair CLR 82.9 66.9 59% 86 30.04 1017.3
21 19:53 W 3 10.00 Fair CLR 86 66.9 90 86 53% 89 30.04 1017.1
21 18:53 S 5 10.00 Fair CLR 88 66.9 50% 91 30.04 1017.1
21 17:53 S 7 10.00 Fair CLR 88 66 48% 90 30.04 1017.3
21 16:53 S 10 10.00 Fair CLR 89.1 64.9 45% 91 30.06 1018.0
21 15:53 S 13 G 21 10.00 Fair CLR 89.1 66.9 48% 92 30.08 1018.5
21 14:53 E 9 10.00 Fair CLR 88 66.9 50% 91 30.09 1018.9
21 13:53 SE 13 10.00 Fair CLR 87.1 64.9 88 75 48% 89 30.12 1019.7
21 12:53 SE 10 G 20 10.00 Fair CLR 86 69.1 57% 90 30.13 1020.2
21 11:53 SE 9 10.00 Fair CLR 84.9 68 57% 88 30.13 1020.3
21 10:53 NE 8 10.00 Fair CLR 84 68 59% 87 30.13 1020.4
21 09:53 NE 13 10.00 Fair CLR 82 68 63% 85 30.13 1020.2
21 08:53 NE 9 10.00 Fair CLR 79 69.1 72% 82 30.14 1020.6
21 07:53 NE 8 10.00 Fair CLR 75 68 82 72 79% 76 30.14 1020.6
21 06:53 NE 7 10.00 Fair CLR 72 68 87% 30.13 1020.3
21 05:53 NE 7 10.00 Fair CLR 73 68 84% 30.13 1020.4
21 04:53 NE 8 10.00 Fair CLR 73.9 69.1 85% 30.12 1019.9
21 03:53 NE 8 10.00 Fair CLR 75.9 70 82% 77 30.11 1019.6
21 02:53 E 8 10.00 Fair CLR 81 71.1 72% 85 30.12 1020.0
21 01:53 E 6 G 20 10.00 A Few Clouds FEW032 82 71.1 88 79 69% 86 30.14 1020.5
21 00:53 E 10 G 17 10.00 A Few Clouds FEW070 82.9 70 65% 87 30.14 1020.5
20 23:53 E 8 10.00 Mostly Cloudy BKN075 82 69.1 65% 85 30.14 1020.5
20 22:53 N 3 10.00 Mostly Cloudy BKN070 81 73.9 79% 86 30.13 1020.1
20 21:53 N 3 10.00 Overcast SCT070 OVC090 82 75 79% 89 30.11 1019.4
20 20:53 NW 3 10.00 A Few Clouds FEW060 FEW080 82.9 73 72% 89 30.09 1019.0
20 19:53 E 5 10.00 A Few Clouds FEW080 88 71.1 91 87.1 57% 94 30.08 1018.6
20 18:53 E 8 10.00 Fair CLR 89.1 73 59% 97 30.08 1018.5
20 17:53 SE 10 10.00 Fair CLR 90 73 58% 98 30.09 1018.9
20 16:53 E 12 G 21 10.00 Fair CLR 89.1 72 57% 96 30.1 1019.3
20 15:53 E 10 G 20 10.00 Fair CLR 90 73 58% 98 30.12 1019.7
20 14:53 E 13 G 24 10.00 Fair CLR 89.1 73.9 61% 98 30.13 1020.1
20 13:53 E 16 G 30 10.00 Fair CLR 87.1 73.9 88 75 65% 95 30.14 1020.7
20 12:53 E 15 G 26 10.00 A Few Clouds FEW020 FEW080 87.1 75 67% 97 30.15 1021.0
20 11:53 E 14 G 37 10.00 Mostly Cloudy FEW035 SCT044 BKN060 86 75 70% 95 30.16 1021.1
20 10:53 E 14 G 23 10.00 Mostly Cloudy SCT017 SCT024 BKN034 84 75 74% 92 30.15 1020.8
20 09:53 NE 14 G 24 10.00 Overcast SCT015 BKN020 OVC035 81 73 77% 86 30.14 1020.5
20 08:53 NE 10 10.00 Overcast BKN021 BKN028 OVC040 77 71.1 82% 79 30.13 1020.2
20 07:53 NE 8 10.00 Overcast FEW020 BKN033 OVC041 75 69.1 81 73 82% 75 30.11 1019.6
20 06:53 NE 9 10.00 Fair CLR 73 68 84% 30.09 1019.0
20 05:53 NE 7 10.00 Fair CLR 73.9 66.9 79% 30.09 1018.8
20 04:53 NE 9 10.00 Overcast OVC090 75 66.9 76% 76 30.08 1018.5
20 03:53 NE 7 10.00 Overcast OVC090 78.1 69.1 74% 80 30.07 1018.4
20 02:53 E 12 G 24 10.00 Overcast OVC090 80.1 68 67% 83 30.09 1018.7
20 01:53 E 9 G 22 10.00 Overcast OVC090 81 69.1 84.9 80.1 67% 84 30.1 1019.4
20 00:53 E 14 G 24 10.00 Mostly Cloudy BKN090 81 69.1 67% 84 30.1 1019.3
19 23:53 E 12 G 21 10.00 Fair CLR 82 68 63% 85 30.11 1019.5
19 22:53 E 13 G 25 10.00 A Few Clouds FEW100 82.9 66.9 59% 86 30.09 1018.9
19 21:53 E 15 G 25 10.00 Fair CLR 84 70 63% 88 30.07 1018.3
19 20:53 E 5 10.00 Fair CLR 82 71.1 69% 86 30.06 1017.8
19 19:53 E 5 10.00 Partly Cloudy SCT080 84.9 70 89.1 80.1 61% 89 30.05 1017.5
19 18:53 E 12 G 20 10.00 Overcast BKN060 OVC080 86 70 59% 91 30.05 1017.4
19 17:53 E 13 G 22 10.00 Overcast FEW041 OVC055 87.1 70 57% 92 30.04 1017.2
19 16:53 E 12 G 22 10.00 Mostly Cloudy FEW041 SCT065 BKN080 88 72 59% 95 30.04 1017.2
19 15:53 E 17 G 24 10.00 A Few Clouds FEW060 88 72 59% 95 30.05 1017.7
19 14:53 E 14 G 23 10.00 Overcast SCT043 BKN060 OVC080 86 73 65% 93 30.07 1018.3
19 13:53 E 15 G 26 10.00 Overcast FEW034 BKN043 OVC050 81 75 86 78.1 82% 87 30.09 1019.0 0.01 0.01
Date Time (edt) Wind (mph) Vis. (mi.) Weather Sky Cond. Air Dwpt Max. Min. Relative Humidity Wind Chill (°F) Heat Index (°F) altimeter (in) sea level (mb) 1 hr 3 hr 6 hr
6 hour
Temperature (ºF) Pressure Precipitation (in)